EHI
3 1 0 0 0 0 0 0 0 0 0 0 0 0 0 0 0 0 0 0 0 0 0 0 0 0 0 1 2 3 2 1 0 0 0 1 1 1 0 0 0 0 0 0 0 1 2 2 1
1 0 0 0 0 0 0 0 0 0 0 0 0 0 0 0 0 0 0 0 0 0 0 0 0 0 0 0 1 2 2 1 0 0 0 0 0 0 0 0 0 0 0 0 0 0 1 1 0
0 0 0 0 0 0 0 0 0 0 0 0 0 0 0 0 0 0 0 0 0 0 0 1 1 0 0 0 0 1 1 1 0 0 0 0 0 0 0 0 0 0 0 0 0 0 0 0 0
0 0 0 0 0 0 0 0 0 0 0 0 0 0 0 0 0 0 0 0 0 0 0 1 1 0 0 0 0 0 0 0 0 0 0 0 0 0 0 0 0 0 0 0 0 0 0 0 0
0 0 0 0 0 0 0 0 0 0 0 0 0 0 0 0 0 0 0 0 0 0 0 0 0 0 0 0 0 0 0 0 0 0 0 0 0 0 1 1 1 0 0 0 0 0 0 0 0
0 0 0 0 0 0 0 0 0 0 0 0 0 0 0 0 0 0 0 0 0 0 0 0 0 0 0 0 0 0 0 0 0 0 0 1 1 0 1 1 1 0 0 0 0 0 0 0 0
0 0 0 0 0 0 0 0 0 0 0 0 0 0 0 0 0 0 0 0 0 0 0 0 0 0 0 0 0 0 0 0 0 0 0 1 1 0 0 0 0 0 0 0 0 0 0 0 0
0 0 0 0 0 0 0 0 0 0 0 0 0 0 0 0 1 2 1 0 0 0 0 0 0 0 0 0 0 0 0 0 0 0 0 0 0 0 0 0 0 0 0 0 0 0 0 0 0
0 0 0 0 0 0 0 0 0 0 0 0 0 0 0 1 3 4 3 1 0 0 0 0 0 0 0 0 0 0 0 0 0 0 0 0 0 0 0 0 0 0 0 0 0 0 0 0 0
0 0 0 0 0 0 0 0 0 0 0 0 0 0 1 3 5 6 5 3 1 0 0 0 0 0 0 0 0 0 0 0 0 0 0 0 0 0 0 0 0 0 0 0 0 0 0 0 0
0 0 0 0 0 0 0 0 1 1 0 0 0 0 2 4 6 6 5 3 1 0 0 0 0 0 0 0 0 0 0 0 0 0 0 0 0 0 0 0 0 0 1 1 0 0 0 0 0
0 0 0 0 0 0 0 0 1 2 1 0 0 1 2 3 4 4 3 2 1 0 0 0 0 0 0 0 0 0 0 0 0 0 0 0 0 0 0 0 0 1 2 2 1 0 0 0 0
0 0 0 0 0 0 0 0 1 2 2 1 0 1 1 1 1 1 1 1 1 1 0 0 0 0 0 0 0 0 0 0 0 0 0 0 0 0 0 0 0 2 3 2 1 0 0 0 0
0 0 0 0 0 0 0 0 0 1 2 1 0 0 0 0 0 0 1 2 2 1 0 0 0 0 0 0 0 0 0 0 0 0 0 0 0 0 0 0 0 1 2 1 0 0 0 0 0
0 0 0 0 0 0 0 0 0 1 2 1 0 0 0 0 0 0 1 2 2 1 0 0 0 0 0 0 0 0 0 0 0 0 0 0 0 0 0 0 0 0 0 0 0 0 0 0 1
0 0 0 0 0 0 0 0 0 1 2 1 1 0 0 0 0 0 1 1 1 1 1 0 0 0 0 0 0 0 0 0 0 0 0 0 0 0 0 0 0 0 0 0 0 0 0 0 1
0 0 0 0 0 0 0 0 0 1 2 2 1 1 0 0 0 0 0 0 1 2 1 0 0 0 0 0 0 0 0 0 0 0 0 0 0 0 0 0 0 0 0 0 0 0 0 0 1
0 0 0 0 0 0 0 0 0 0 1 1 1 1 1 0 0 0 0 0 1 2 1 0 0 0 1 1 1 1 0 0 0 0 0 0 0 0 0 0 0 0 0 0 0 0 0 0 0
0 0 0 0 0 0 0 0 0 0 0 0 0 0 0 0 0 0 1 1 2 2 1 0 1 1 2 4 3 2 1 0 0 0 0 0 0 0 0 0 0 0 0 0 0 0 0 0 0
0 0 0 0 0 0 0 0 0 0 0 0 0 0 0 0 1 1 2 3 3 2 1 0 0 1 3 5 5 4 2 1 1 1 0 0 0 0 0 0 0 0 0 0 0 0 0 0 0
0 0 0 0 0 0 0 0 0 0 0 0 0 0 0 0 1 2 2 2 2 2 1 1 0 1 3 5 5 4 3 3 2 2 1 0 0 0 0 0 0 0 0 0 0 0 0 0 0
0 0 0 0 0 0 0 0 0 0 0 0 0 0 0 0 0 1 1 1 1 2 2 2 0 1 2 4 5 4 3 3 3 2 1 0 0 0 0 0 0 0 0 0 0 0 0 0 0
0 0 0 0 0 0 0 0 0 0 0 0 0 0 0 0 0 0 0 0 0 1 2 1 0 1 2 3 4 4 4 3 2 1 0 0 0 0 0 0 0 0 0 0 0 0 0 0 0
0 0 0 0 0 0 0 0 0 0 0 0 0 0 0 0 0 0 0 0 0 1 1 1 1 2 3 3 3 4 4 4 2 1 1 2 1 1 0 0 0 0 0 0 0 0 0 0 0
0 0 0 0 0 0 0 0 0 0 0 0 0 0 0 0 0 0 0 1 1 1 1 1 2 3 3 3 3 3 3 4 3 2 2 2 2 2 1 0 0 0 0 0 0 0 0 0 0
0 0 0 0 0 0 0 0 0 0 0 0 0 0 0 0 0 0 0 1 2 2 1 1 3 3 3 3 3 3 3 3 3 2 2 1 2 2 2 1 1 0 0 0 0 0 0 0 0
0 0 0 0 0 0 0 0 0 0 0 0 0 0 0 0 1 1 0 1 2 2 2 3 3 3 3 3 3 3 4 3 3 3 2 1 1 2 3 3 2 1 1 0 0 0 0 0 0
0 0 0 0 0 0 0 0 0 0 0 0 0 0 0 0 1 1 0 0 1 1 2 3 3 3 3 3 3 3 4 4 3 3 2 1 1 2 3 3 3 3 2 1 0 0 0 0 0
0 0 0 0 0 0 0 0 0 0 0 0 0 0 0 0 1 1 0 0 0 0 1 1 2 3 3 2 2 3 4 3 3 4 3 2 1 1 2 3 3 3 2 1 0 0 0 0 0
0 0 0 0 0 0 0 0 0 0 0 0 0 0 0 0 0 0 0 0 0 0 0 0 1 3 2 1 2 3 3 3 4 5 5 3 2 1 1 2 3 3 2 1 0 0 0 0 0
Wind_Speed
4 3 3 3 3 2 5 4 3 4 4 5 5 4 5 6 6 6 5 3 4 4 5 5 6 7 9 9 10 9 9 9 8 8 8 8 8 8 8 8 8 8 9 9 9 9 9 9 9
2 2 3 3 3 3 5 4 5 5 6 5 4 4 5 6 6 6 4 4 4 5 5 6 7 7 8 8 9 9 9 9 8 8 9 8 8 7 7 8 8 9 9 9 9 9 9 9 9
3 2 2 1 0 2 5 5 6 7 5 2 3 4 4 5 4 5 5 5 4 5 5 8 7 7 8 8 9 9 10 10 9 9 9 9 8 7 7 9 9 10 10 9 9 9 9 9 9
3 2 2 1 6 5 4 5 6 7 5 3 3 5 5 5 4 6 6 5 5 5 6 8 7 8 8 9 9 10 10 10 10 9 9 9 9 10 10 11 11 11 10 10 9 9 10 10 11
2 2 2 4 6 5 4 4 3 4 4 4 3 5 6 5 6 7 6 5 5 6 6 7 8 8 9 9 9 10 10 10 10 10 10 10 10 12 12 12 12 12 11 11 11 11 11 11 11
2 2 2 4 6 5 4 3 4 4 5 5 4 5 6 5 6 7 6 5 5 6 6 7 8 8 9 9 9 10 10 10 11 11 11 11 12 12 12 12 12 12 12 12 12 12 12 12 12
0 0 2 5 5 5 4 3 3 3 4 3 2 4 6 6 6 6 6 5 5 5 5 5 6 8 9 9 10 10 11 11 11 11 12 12 12 12 12 12 12 12 13 13 13 12 12 12 12
1 1 4 3 4 4 4 3 2 2 4 4 1 2 5 7 7 7 6 5 5 5 5 5 6 6 6 8 10 10 10 11 11 11 11 10 10 10 10 11 12 12 12 12 12 12 12 12 12
2 2 3 3 2 4 4 4 3 2 4 3 2 3 6 10 9 7 6 6 5 5 5 5 5 5 5 6 8 7 8 8 7 9 8 5 6 8 8 12 12 12 12 12 12 12 11 10 10
1 1 3 2 1 3 4 3 4 4 4 4 4 5 8 9 8 7 6 6 6 5 5 5 5 5 5 4 4 4 5 5 5 6 6 5 6 7 7 11 11 11 11 11 11 9 7 4 6
1 2 3 3 3 3 4 3 2 3 2 2 4 8 9 9 8 6 6 5 5 5 4 4 4 4 4 3 3 2 3 3 4 5 6 5 5 4 5 4 5 6 6 6 6 5 5 6 5
3 3 2 3 3 3 3 3 3 1 2 3 4 8 9 9 7 6 6 5 5 5 4 4 4 4 3 3 3 2 2 3 3 3 5 4 3 3 4 3 4 4 3 4 4 4 6 7 7
3 3 3 3 4 3 4 3 2 2 2 4 6 8 8 7 6 5 5 5 5 5 4 4 3 3 3 3 2 2 2 2 3 2 3 4 3 4 4 4 3 4 4 4 4 5 6 6 7
3 4 3 3 3 3 3 3 2 1 3 5 6 7 7 6 5 5 5 5 5 5 4 4 4 3 3 3 2 2 2 2 2 2 2 4 3 3 3 4 4 4 4 4 4 5 5 5 5
4 4 3 2 2 2 2 2 2 2 4 5 5 6 6 5 5 5 5 5 5 5 4 4 3 3 3 3 2 2 2 2 2 2 2 3 3 3 3 3 3 3 3 4 4 5 4 4 5
4 4 3 2 1 2 4 1 2 3 4 4 4 5 5 6 6 5 5 5 4 5 5 5 3 3 3 3 2 2 2 2 2 2 1 3 3 4 3 3 3 3 3 3 3 3 3 4 4
4 3 2 2 2 2 3 1 1 3 4 3 3 4 5 5 6 5 5 5 4 4 4 5 4 4 3 2 2 2 2 2 2 2 1 2 2 3 3 2 2 3 2 2 2 3 3 4 4
2 2 2 1 1 3 3 3 2 3 3 4 3 4 5 6 6 6 6 5 4 4 4 4 5 4 4 3 3 3 2 2 2 1 2 2 1 2 3 2 2 2 2 2 2 3 2 3 2
1 2 3 2 0 3 4 4 3 3 4 4 4 4 5 5 6 6 6 6 5 4 5 4 5 5 4 3 3 3 3 2 2 2 2 3 2 2 2 2 2 2 2 2 2 2 3 2 1
3 3 3 1 0 3 4 4 3 4 5 4 4 4 4 4 6 6 7 7 6 5 5 5 5 5 5 3 3 2 2 2 1 1 2 2 2 2 2 3 2 2 2 2 2 2 1 1 0
5 5 4 3 2 4 4 4 4 3 3 3 3 3 3 3 5 6 7 7 6 6 6 5 5 5 5 5 3 3 3 2 3 2 2 2 2 3 2 2 2 2 2 2 2 2 2 1 1
4 2 4 4 5 3 4 4 2 2 2 2 2 3 2 3 4 5 6 6 6 6 5 6 5 5 6 5 4 4 3 3 3 2 2 2 2 2 3 3 3 3 2 3 3 3 2 1 1
3 1 3 5 6 6 5 5 1 1 2 1 1 2 2 2 3 4 5 5 5 5 5 5 5 5 6 6 5 5 4 3 2 3 3 3 2 3 3 3 3 3 3 3 3 3 2 2 1
3 3 4 5 6 6 3 5 1 1 2 2 0 1 2 2 2 3 3 4 3 3 4 4 5 5 6 6 6 6 5 4 4 4 3 3 3 3 4 3 3 3 3 3 3 3 3 3 2
5 5 4 4 4 2 1 4 1 4 3 3 2 0 1 2 2 3 3 3 3 3 4 5 5 5 6 6 6 6 6 5 5 4 4 3 3 3 4 4 4 3 3 3 3 3 3 3 3
5 6 5 4 3 1 3 3 2 4 3 2 2 2 2 2 2 2 2 3 3 4 4 4 4 5 5 5 5 5 5 4 3 4 3 3 3 3 4 4 4 4 4 4 3 3 3 3 3
4 4 5 6 5 5 3 2 3 3 3 4 4 4 3 3 2 2 2 2 3 3 4 4 4 4 4 5 4 4 4 4 3 3 4 3 3 3 4 5 5 5 5 5 4 3 3 3 3
3 2 4 5 5 5 4 4 1 2 2 3 4 3 3 2 2 2 2 2 2 2 2 3 3 4 4 4 4 4 4 4 3 3 3 4 3 3 4 5 5 5 5 5 4 4 4 4 3
4 5 5 5 5 5 4 1 2 0 1 1 2 3 2 2 2 2 2 2 2 2 2 2 2 3 3 4 4 5 4 4 4 4 4 3 4 4 4 5 5 5 5 5 5 5 5 5 4
5 5 6 6 5 6 6 1 4 1 1 1 2 2 2 2 2 2 2 2 2 1 1 1 1 2 2 3 4 4 4 4 5 5 4 4 4 4 5 5 5 5 5 5 5 5 5 5 5
Wind_Direction
188 187 211 232 223 146 90 89 96 105 89 73 72 60 58 38 19 55 80 87 82 82 78 83 65 67 65 70 80 80 75 75 74 74 73 72 75 78 81 84 81 82 82 79 71 66 67 68 68
190 191 226 242 241 137 103 106 107 87 101 109 88 71 75 70 55 82 104 95 96 86 78 74 73 73 69 71 75 75 74 76 76 76 74 71 69 74 83 87 83 81 85 81 74 68 65 65 67
164 227 264 236 106 79 103 106 106 105 115 119 99 58 49 67 79 93 100 116 105 89 81 81 76 77 75 75 75 76 75 74 76 76 73 70 66 66 84 93 85 82 83 82 76 72 65 65 67
202 209 222 152 97 75 90 111 122 128 117 93 113 98 84 60 76 98 114 119 106 96 87 85 79 81 80 79 77 76 74 74 75 74 73 70 66 68 85 90 84 80 77 77 77 75 71 70 72
230 239 169 123 99 96 92 100 131 127 113 103 111 103 96 83 93 109 118 116 106 98 92 91 81 82 82 81 79 77 77 76 76 74 73 72 71 72 81 82 81 77 74 73 76 78 75 73 72
204 225 174 124 112 107 103 111 128 109 110 113 111 108 95 107 120 118 120 119 106 102 95 97 93 84 82 81 78 76 77 76 74 73 72 72 72 73 76 76 78 77 74 73 73 75 73 71 70
256 183 118 122 129 124 109 114 124 117 117 101 107 113 117 131 126 128 126 120 110 104 100 102 106 105 97 84 78 76 75 74 74 73 74 75 75 75 75 76 77 76 74 72 71 71 72 71 70
317 184 139 133 139 115 115 129 102 93 92 97 118 121 130 142 139 138 132 126 118 111 105 103 101 100 101 98 86 80 77 75 76 76 76 79 87 84 80 83 76 76 75 74 72 70 70 71 70
252 204 134 122 135 117 138 148 119 106 118 118 93 64 106 135 148 146 139 133 127 120 115 111 108 102 99 96 98 97 93 86 95 91 87 92 89 86 84 74 76 77 77 75 73 72 73 78 79
242 138 79 63 99 120 139 147 142 155 138 137 130 117 128 144 156 155 150 143 136 130 123 117 114 112 107 99 101 96 92 94 86 85 86 76 76 78 83 87 82 82 82 82 76 76 81 70 76
102 90 91 95 116 131 139 137 159 177 135 148 153 149 150 155 160 160 153 144 137 132 122 119 116 113 111 111 104 98 96 91 83 82 89 84 83 96 91 91 98 91 87 80 84 83 67 66 64
116 102 104 109 125 144 139 140 135 133 68 84 125 143 153 163 169 173 162 154 151 140 137 129 122 122 119 112 110 111 106 101 94 92 88 87 82 82 82 83 78 74 75 76 72 72 72 67 66
127 112 98 109 122 127 128 129 115 97 77 109 130 149 161 170 172 173 170 165 163 157 154 145 143 134 118 106 110 118 100 91 100 96 98 91 88 88 88 82 78 77 79 81 75 72 69 63 60
110 120 116 121 125 132 135 131 143 120 130 137 146 158 168 175 177 171 174 177 177 174 165 154 159 143 130 126 127 117 107 109 103 102 98 94 92 92 89 88 83 76 75 72 76 75 71 67 64
144 148 149 145 155 154 178 159 172 150 156 157 163 163 169 178 183 187 181 186 187 179 170 160 158 151 148 137 125 126 134 131 116 107 104 96 91 96 97 88 88 84 84 87 78 79 72 74 77
192 203 189 143 178 183 229 220 112 140 169 176 177 170 179 186 196 196 191 193 188 185 175 167 170 168 164 155 154 151 146 142 133 128 110 100 103 99 93 92 91 98 92 86 84 84 83 83 75
207 215 204 170 176 198 227 256 123 162 189 199 197 192 190 192 200 199 196 201 192 193 192 180 168 174 164 154 158 159 156 157 158 149 136 127 118 116 111 94 97 104 100 93 90 79 80 84 78
209 241 238 242 156 223 234 249 214 199 214 225 219 214 203 206 207 197 192 194 190 191 195 186 167 178 156 162 166 157 164 165 163 163 162 134 131 128 118 127 122 109 111 105 102 95 90 83 84
264 265 275 297 247 252 258 265 246 220 223 238 230 223 220 217 204 191 187 184 185 188 191 180 180 174 166 168 176 174 175 176 163 159 160 151 160 143 133 145 130 131 118 113 119 115 118 115 100
225 246 269 288 249 264 274 274 254 228 230 242 242 230 225 215 195 189 191 184 187 189 191 184 188 178 176 179 180 180 172 176 149 148 157 163 167 161 164 172 155 151 139 147 138 142 144 113 110
238 254 268 284 283 237 265 249 212 187 211 236 245 240 239 224 208 192 193 191 188 193 190 187 189 183 184 181 175 164 162 175 167 166 166 181 191 183 188 184 173 173 179 165 174 180 180 149 122
256 269 259 256 259 256 253 279 186 193 212 231 233 216 217 206 205 194 194 195 194 194 191 187 186 187 185 185 186 187 186 182 178 175 165 178 184 190 192 188 187 188 192 186 195 196 200 208 188
276 283 248 250 258 262 238 264 207 166 249 251 218 199 204 191 188 187 191 192 193 190 190 189 185 188 188 188 187 202 198 188 175 173 174 181 180 192 190 197 201 201 202 204 208 201 215 221 245
194 207 221 231 246 252 251 256 269 81 333 341 317 183 188 186 174 167 163 167 170 173 181 183 186 186 187 191 198 201 197 193 185 190 189 193 192 195 197 201 209 211 212 210 213 218 213 229 236
221 240 243 224 219 237 120 250 317 35 3 338 331 79 162 154 156 149 147 156 158 166 174 175 180 186 189 194 203 204 204 205 206 207 206 210 205 203 203 204 212 214 219 222 218 225 226 223 230
229 254 269 284 276 244 196 246 78 51 30 27 54 78 96 112 131 137 138 151 162 161 167 174 171 182 189 194 201 206 201 212 221 220 220 218 221 215 209 215 217 218 224 228 219 231 228 233 231
234 239 283 280 275 272 236 193 139 96 71 72 80 85 83 86 108 121 125 133 144 151 158 169 173 177 187 194 195 197 200 206 217 221 224 220 218 213 210 213 218 220 220 225 220 223 224 234 241
284 239 227 247 267 255 242 236 224 124 76 79 83 79 72 71 76 94 115 128 131 138 149 161 175 182 190 194 194 198 209 209 215 221 222 226 226 216 212 213 221 221 217 218 218 226 228 228 224
202 212 237 249 266 280 269 165 54 14 91 95 84 73 66 65 77 91 106 122 127 125 129 151 186 197 198 199 202 204 205 210 215 217 220 225 226 222 221 219 219 221 222 222 218 219 219 228 227
258 249 244 254 250 260 278 305 87 95 108 108 85 74 72 65 82 98 96 103 112 123 142 161 191 215 216 211 213 216 206 203 215 220 219 219 223 221 222 219 218 221 222 224 226 226 222 227 232